Weather History for KOCQ - March, 2013

Change the Weather History Date:

Tuesday, March 5, 2013

  Actual Average Record
Temperature  
Mean Temperature 24 °F -  
Max Temperature 30 °F 34 °F 30 °F (2013)
Min Temperature 18 °F 16 °F -14 °F (2015)
Degree Days  
Heating Degree Days 41    
Moisture  
Dew Point 18 °F    
Average Humidity 72    
Maximum Humidity 85    
Minimum Humidity 58    
Precipitation  
Precipitation 0.00 in - - ()
Sea Level Pressure  
Sea Level Pressure 30.06 in    
Wind  
Wind Speed 7 mph (NE)    
Max Wind Speed 15 mph    
Max Gust Speed 22 mph    
Visibility 10 miles    
Events      
Averages and records for this station are not official NWS values.
T = Trace of Precipitation, MM = Missing Value Source: NWS Daily Summary

Daily Weather History Graph

Daily Weather History Graph

Search for Another Location

Airport or City:

Trip Planner

Search our weather history database for the weather conditions in past years. The results will help you decide how hot, cold, wet, or windy it might be!

Date:

Astronomy

Mar. 05, 2013 Rise Set
Actual Time 6:21 AM CST 5:44 PM CST
Civil Twilight 5:52 AM CST 6:14 PM CST
Nautical Twilight 5:18 AM CST 6:48 PM CST
Astronomical Twilight 4:44 AM CST 7:22 PM CST
Moon 1:45 AM CST (3/5) 11:12 AM CST (3/5)
Length of Visible Light 12h 21m
Length of Day
11h 23m
Last Quarter, 40% of the Moon is Illuminated
Mar 5
Last Quarter
Mar 11
New
Mar 19
First Quarter
Mar 27
Full
Apr 2
Last Quarter

Hourly Weather History & Observations

Time (CST) Temp. Windchill Dew Point Humidity Pressure Visibility Wind Dir Wind Speed Gust Speed Precip Events Conditions
12:35 AM 21.7 °F 17.0 °F 13.6 °F 71% 30.13 in 10.0 mi North 3.5 mph - N/A   Overcast
12:55 AM 21.0 °F 14.6 °F 13.6 °F 73% 30.12 in 10.0 mi NNE 4.6 mph - N/A   Overcast
1:35 AM 20.7 °F 14.2 °F 14.0 °F 75% 30.11 in 10.0 mi NNE 4.6 mph - N/A   Overcast
1:55 AM 20.1 °F 13.6 °F 14.2 °F 78% 30.11 in 10.0 mi NNE 4.6 mph - N/A   Overcast
2:15 AM 20.1 °F 12.3 °F 14.4 °F 78% 30.10 in 10.0 mi NNE 5.8 mph - N/A   Overcast
2:16 AM 19.4 °F 10.4 °F 14.0 °F 80% 30.10 in 10.0 mi NNE 6.9 mph - N/A   Overcast
2:35 AM 19.9 °F 13.4 °F 14.5 °F 80% 30.10 in 10.0 mi NNE 4.6 mph - N/A   Overcast
2:55 AM 19.9 °F 11.1 °F 14.5 °F 80% 30.08 in 10.0 mi NNE 6.9 mph - N/A   Overcast
3:15 AM 19.6 °F 11.7 °F 14.2 °F 80% 30.08 in 10.0 mi NNE 5.8 mph - N/A   Overcast
3:35 AM 19.0 °F 11.1 °F 14.0 °F 81% 30.08 in 10.0 mi NNE 5.8 mph - N/A   Scattered Clouds
3:55 AM 18.5 °F 11.7 °F 13.8 °F 82% 30.08 in 10.0 mi North 4.6 mph - N/A   Clear
4:15 AM 18.5 °F 9.3 °F 14.0 °F 83% 30.08 in 10.0 mi NNE 6.9 mph - N/A   Scattered Clouds
4:35 AM 19.0 °F 9.0 °F 14.5 °F 83% 30.07 in 10.0 mi NNE 8.1 mph - N/A   Overcast
4:55 AM 19.0 °F 10.0 °F 14.7 °F 83% 30.07 in 10.0 mi NNE 6.9 mph - N/A   Overcast
5:15 AM 19.0 °F 10.0 °F 14.9 °F 84% 30.06 in 10.0 mi NNE 6.9 mph - N/A   Overcast
5:35 AM 19.0 °F 10.0 °F 14.9 °F 84% 30.06 in 10.0 mi NE 6.9 mph - N/A   Overcast
5:55 AM 19.6 °F 10.6 °F 15.4 °F 84% 30.06 in 10.0 mi NE 6.9 mph - N/A   Overcast
6:15 AM 19.2 °F 12.5 °F 15.1 °F 84% 30.05 in 10.0 mi NE 4.6 mph - N/A   Overcast
6:35 AM 19.4 °F 10.4 °F 15.4 °F 85% 30.05 in 10.0 mi NE 6.9 mph - N/A   Scattered Clouds
7:15 AM 20.3 °F 11.5 °F 15.8 °F 83% 30.05 in 10.0 mi NNE 6.9 mph - N/A   Clear
7:35 AM 20.1 °F 13.6 °F 15.4 °F 82% 30.05 in 10.0 mi NNE 4.6 mph - N/A   Clear
7:55 AM 21.7 °F 17.0 °F 16.3 °F 80% 30.04 in 10.0 mi NNE 3.5 mph - N/A   Clear
8:15 AM 24.1 °F 15.2 °F 16.7 °F 73% 30.04 in 10.0 mi NE 8.1 mph - N/A   Mostly Cloudy
8:35 AM 25.7 °F 16.4 °F 16.7 °F 69% 30.04 in 10.0 mi ENE 9.2 mph - N/A   Overcast
8:55 AM 26.8 °F 17.1 °F 17.1 °F 67% 30.03 in 10.0 mi ENE 10.4 mph - N/A   Overcast
9:15 AM 27.5 °F 19.3 °F 17.4 °F 66% 30.04 in 10.0 mi ENE 8.1 mph - N/A   Overcast
9:35 AM 28.0 °F 19.3 °F 18.1 °F 66% 30.04 in 10.0 mi ENE 9.2 mph 17.3 mph N/A   Overcast
9:55 AM 28.0 °F 19.3 °F 18.5 °F 67% 30.05 in 10.0 mi ENE 9.2 mph 17.3 mph N/A   Overcast
10:15 AM 28.4 °F 20.4 °F 19.0 °F 68% 30.06 in 10.0 mi ENE 8.1 mph - N/A   Overcast
10:35 AM 28.9 °F 22.8 °F 19.2 °F 67% 30.06 in 10.0 mi ENE 5.8 mph - N/A   Overcast
10:55 AM 29.8 °F 24.9 °F 19.9 °F 67% 30.06 in 10.0 mi NE 4.6 mph - N/A   Overcast
11:15 AM 30.2 °F 24.3 °F 20.1 °F 66% 30.05 in 10.0 mi ENE 5.8 mph - N/A   Mostly Cloudy
11:35 AM 30.4 °F 22.9 °F 20.3 °F 66% 30.05 in 10.0 mi NE 8.1 mph - N/A   Scattered Clouds
11:55 AM 30.7 °F 22.6 °F 20.3 °F 65% 30.05 in 10.0 mi ENE 9.2 mph - N/A   Clear
12:15 PM 30.9 °F 23.5 °F 20.7 °F 66% 30.04 in 10.0 mi ENE 8.1 mph - N/A   Scattered Clouds
12:35 PM 29.8 °F 21.5 °F 21.2 °F 70% 30.04 in 10.0 mi NE 9.2 mph - N/A   Mostly Cloudy
12:55 PM 29.7 °F 20.1 °F 21.4 °F 71% 30.02 in 10.0 mi NE 11.5 mph - N/A   Overcast
1:15 PM 29.7 °F 20.7 °F 21.2 °F 71% 30.01 in 10.0 mi ENE 10.4 mph - N/A   Overcast
1:35 PM 30.0 °F 19.1 °F 20.8 °F 69% 30.00 in 10.0 mi NE 15.0 mph 18.4 mph N/A   Mostly Cloudy
1:55 PM 29.7 °F 19.6 °F 19.9 °F 67% 29.99 in 10.0 mi ENE 12.7 mph 21.9 mph N/A   Overcast
2:15 PM 29.3 °F 21.5 °F 18.3 °F 64% 29.99 in 10.0 mi NE 8.1 mph - N/A   Overcast
2:35 PM 28.9 °F 20.4 °F 16.2 °F 59% 29.99 in 10.0 mi NE 9.2 mph 17.3 mph N/A   Overcast
2:55 PM 29.3 °F 20.2 °F 16.7 °F 59% 29.99 in 10.0 mi ENE 10.4 mph 16.1 mph N/A   Overcast
3:15 PM 29.7 °F 22.0 °F 17.2 °F 60% 29.99 in 10.0 mi ENE 8.1 mph - N/A   Overcast
3:35 PM 29.7 °F 22.0 °F 17.6 °F 61% 30.00 in 10.0 mi East 8.1 mph - N/A   Overcast
3:55 PM 29.8 °F 21.5 °F 16.5 °F 58% 30.00 in 10.0 mi NE 9.2 mph - N/A   Overcast
4:15 PM 29.5 °F 22.5 °F 17.1 °F 60% 30.01 in 10.0 mi ENE 6.9 mph - N/A   Overcast
4:35 PM 28.8 °F 22.6 °F 17.6 °F 63% 30.01 in 10.0 mi ENE 5.8 mph - N/A   Overcast
4:55 PM 28.4 °F 20.4 °F 17.8 °F 64% 30.01 in 10.0 mi NE 8.1 mph - N/A   Overcast
5:15 PM 28.4 °F 21.2 °F 17.6 °F 64% 30.02 in 10.0 mi ENE 6.9 mph - N/A   Overcast
5:35 PM 28.9 °F 23.9 °F 17.1 °F 61% 30.03 in 10.0 mi ENE 4.6 mph - N/A   Overcast
5:55 PM 28.8 °F 22.6 °F 17.4 °F 63% 30.04 in 10.0 mi NE 5.8 mph - N/A   Overcast
6:15 PM 29.1 °F 23.0 °F 17.2 °F 61% 30.04 in 10.0 mi NE 5.8 mph - N/A   Overcast
6:35 PM 29.1 °F 23.0 °F 17.6 °F 62% 30.05 in 10.0 mi NE 5.8 mph - N/A   Overcast
6:55 PM 28.9 °F 21.1 °F 18.3 °F 65% 30.06 in 10.0 mi NNE 8.1 mph - N/A   Overcast
7:15 PM 29.1 °F 18.9 °F 20.1 °F 69% 30.06 in 10.0 mi NNE 12.7 mph - N/A   Overcast
7:35 PM 28.8 °F 19.0 °F 20.1 °F 70% 30.06 in 10.0 mi NNE 11.5 mph 19.6 mph N/A   Overcast
7:55 PM 28.4 °F 18.5 °F 20.3 °F 72% 30.08 in 10.0 mi NNE 11.5 mph 17.3 mph N/A   Overcast
8:15 PM 27.5 °F 16.8 °F 20.3 °F 74% 30.08 in 10.0 mi NNE 12.7 mph 17.3 mph N/A   Overcast
8:35 PM 26.8 °F 15.9 °F 20.3 °F 77% 30.09 in 10.0 mi NNE 12.7 mph 18.4 mph N/A   Overcast
8:55 PM 26.6 °F 15.7 °F 20.3 °F 77% 30.09 in 10.0 mi North 12.7 mph 19.6 mph N/A   Overcast
9:15 PM 26.1 °F 16.2 °F 20.1 °F 78% 30.09 in 10.0 mi North 10.4 mph 16.1 mph N/A   Overcast
9:35 PM 25.7 °F 15.7 °F 19.9 °F 79% 30.09 in 10.0 mi North 10.4 mph - N/A   Mostly Cloudy
9:55 PM 26.4 °F 17.3 °F 20.3 °F 78% 30.09 in 10.0 mi North 9.2 mph - N/A   Mostly Cloudy
10:15 PM 26.6 °F 16.8 °F 20.7 °F 78% 30.08 in 10.0 mi North 10.4 mph - N/A   Overcast
10:35 PM 27.1 °F 17.5 °F 21.0 °F 78% 30.09 in 10.0 mi North 10.4 mph - N/A   Overcast
10:55 PM 27.1 °F 17.5 °F 21.0 °F 78% 30.09 in 10.0 mi North 10.4 mph 16.1 mph N/A   Overcast
11:15 PM 27.1 °F 18.2 °F 21.0 °F 78% 30.09 in 10.0 mi North 9.2 mph - N/A   Overcast
11:35 PM 27.1 °F 19.7 °F 20.8 °F 77% 30.09 in 10.0 mi North 6.9 mph - N/A   Overcast
11:55 PM 27.1 °F 18.9 °F 20.8 °F 77% 30.10 in 10.0 mi North 8.1 mph - N/A   Overcast